Regional Weather Roundup
Issued by NWS Cleveland, OH

Home | Current Version | Previous Version | Text Only | Print | Product List | Glossary Off
Versions: 1 2 3 4 5 6 7 8 9 10 11 12 13 14 15 16 17 18 19 20 21 22 23 24 25 26 27 28 29 30 31 32 33 34 35 36 37 38 39 40 41 42 43 44 45 46 47 48 49 50

000
ASUS41 KCLE 041800
RWRCLE
OHIO REGIONAL WEATHER ROUNDUP
NATIONAL WEATHER SERVICE WILMINGTON, OH
200 PM EDT SAT JUL 04 2015

NOTE: "FAIR" INDICATES FEW OR NO CLOUDS BELOW 12,000 FEET WITH NO
SIGNIFICANT WEATHER AND/OR OBSTRUCTIONS TO VISIBILITY.

OHZ001>008-015>018-024>027-034-035-043-044-041900-
   NORTHWEST OHIO

CITY           SKY/WX    TMP DP  RH WIND       PRES   REMARKS
DEFIANCE       MOSUNNY   77  56  48 S6        30.02R
FINDLAY        SUNNY     77  55  46 NW7       30.01R
TOLEDO EXPRESS SUNNY     77  51  40 CALM      30.00S
TOLEDO EXEC    SUNNY     78  53  41 MISG      30.01S
LIMA           SUNNY     75  55  49 N7        30.02S
$$

OHZ009>014-019>023-028>033-038-089-041900-
   NORTHEAST OHIO

CITY           SKY/WX    TMP DP  RH WIND       PRES   REMARKS
CLE-HOPKINS    SUNNY     74  51  44 VRB6      30.02R
CLE-LAKEFRONT  SUNNY     73  53  49 N8        30.00R
CUY CO. ARPT   SUNNY     73  52  46 NE9       30.02R
LORAIN-ELYRIA  SUNNY     73  56  54 VRB6      30.01S
ASHTABULA      SUNNY     73  50  44 NE7       30.01R
AKRON-CANTON   MOSUNNY   77  56  48 N6        30.00R
WOOSTER        NOT AVBL
MANSFIELD      SUNNY     74  53  48 MISG      30.03R
YOUNGSTOWN     MOSUNNY   76  52  43 NW6       29.99R
$$

OHZ042-051>053-060>062-070>072-077>081-041900-
  SOUTHWEST OHIO

CITY           SKY/WX    TMP DP  RH WIND       PRES   REMARKS
CINC-COVINGTON MOSUNNY   78  62  57 CALM      30.02S
CINC-LUNKEN    MOSUNNY   79  62  56 W7        30.01F
HAMILTON       SUNNY     80  62  54 N7        30.03S
DAYTON         NOT AVBL
WRIGHT-PAT AFB MOSUNNY   76  54  47 VRB5      30.03R
DAYTON GENERAL SUNNY     77  56  48 NW7       30.02S
WILMINGTON     SUNNY     76  53  44 VRB3      30.02S
$$

OHZ036-037-039>041-045>050-054>059-063>069-073>076-082>088-041900-
  CENTRAL AND SOUTHEAST OHIO

CITY           SKY/WX    TMP DP  RH WIND       PRES   REMARKS
COLUMBUS       MOSUNNY   77  60  55 VRB7      30.00S
OSU AIRPORT    SUNNY     76  55  48 NW8       30.02R
BOLTON FIELD   SUNNY     73  55  53 W7        30.02S
RICKENBACK AFB NOT AVBL
NEWARK         SUNNY     79  59  50 NW6       30.00R
MARION         SUNNY     75  53  46 N5        30.03R
LANCASTER      SUNNY     78  59  51 VRB5      30.01S
ZANESVILLE     SUNNY     76  58  53 W6        29.99S
NEW PHILLY     MOSUNNY   76  59  55 VRB5      29.99S
$$



USA.gov is the U.S. government's official web portal to all federal, state and local government web resources and services.